[[{"header":{"parameterUnit":"m.s-1","parameterCategory":1,"la1":30.2992,"la2":30.254,"lo1":-89.0895,"lo2":-89.0443,"dy":0.0025,"dx":0.0025,"nx":19,"ny":19,"refTime":"2026-03-17T21:00:00:Z","depth":0,"parameterNumber":2,"parameterNumberName":"U-component_of_WINDS"},"data":[0,0,0,1.4155,1.4156,1.4209,1.421,1.4271,1.4271,0,0,0,0,0,0,0,0,0,0,0,1.4134,1.4134,1.4155,1.4156,1.4209,1.421,1.4271,1.4271,0,0,0,0,0,0,0,0,0,0,0,1.4134,1.4134,1.4134,1.4156,1.4209,1.421,1.427,1.4233,0,0,0,0,0,0,0,0,0,0,1.4182,1.4158,1.4134,1.4134,1.4156,1.4209,1.421,1.4231,1.4235,1.4243,0,1.4248,0,1.4261,1.4275,1.4275,0,0,0,1.416,1.4154,1.4173,1.4134,1.4157,1.4209,1.4186,1.4233,1.4238,1.4248,1.4249,1.4252,1.4262,1.4275,1.4275,1.4307,1.4307,0,0,1.4157,1.4141,1.417,1.4176,1.4167,1.4185,1.4188,1.4236,1.4236,1.4249,1.4253,1.4263,1.4275,1.4276,1.4307,1.4307,0,0,0,1.4146,1.4138,1.4157,1.4173,1.4183,1.4186,1.419,1.4234,1.4241,1.4254,1.4263,1.4276,1.4276,1.4307,1.4307,1.429,0,0,0,1.4144,1.4132,1.4155,1.4146,1.4182,1.4209,1.4186,1.4238,1.4244,1.4263,1.4276,1.4277,1.4307,1.4307,1.4291,1.4284,0,0,0,1.4132,1.4131,1.4137,1.4145,1.4167,1.4209,1.4219,1.424,1.425,1.4275,1.4277,1.4307,1.4307,1.4291,1.4285,1.4288,0,0,0,1.4114,1.412,1.4136,1.4146,1.4167,1.4198,1.4219,1.4243,1.4263,1.4276,1.4307,1.4307,1.4291,1.4286,1.4289,1.4287,1.4286,0,0,1.4113,1.412,1.4127,1.4143,1.4167,1.4191,1.4213,1.4246,1.4264,1.4292,1.4293,1.429,1.4285,1.4288,1.4281,1.4279,0,0,0,1.4121,1.4126,1.4136,1.4154,1.418,1.4201,1.4233,1.4246,1.427,1.4275,1.4293,1.429,1.4293,1.4293,1.4291,1.4295,1.4307,1.4307,1.4307,1.4095,1.4117,1.4131,1.416,1.4177,1.421,1.4226,1.4249,1.4266,1.427,1.4278,1.4271,1.427,1.4269,1.4272,1.4279,1.4279,1.4279,1.4279,1.4095,1.4106,1.4129,1.415,1.4174,1.4192,1.4225,1.4236,1.4257,1.4266,1.4269,1.4277,1.4267,1.4271,1.4278,1.4278,1.4278,1.4279,1.4279,1.408,1.4089,1.4105,1.4134,1.4153,1.4183,1.4202,1.4222,1.4242,1.4245,1.4257,1.4257,1.426,1.4249,1.4249,1.4249,1.4249,1.4249,1.4249,1.4059,1.4077,1.409,1.4119,1.4133,1.4155,1.4189,1.4205,1.4227,1.424,1.4241,1.4257,1.4262,1.4262,1.4249,1.4249,1.4249,1.4249,1.4249,1.405,1.4055,1.4076,1.4091,1.4126,1.4145,1.4172,1.4201,1.4217,1.4226,1.4242,1.4242,1.425,1.4252,1.4252,1.4237,1.4237,1.4237,1.4237,1.4037,1.4044,1.407,1.4092,1.4117,1.4143,1.4167,1.4193,1.4222,1.4233,1.4239,1.4242,1.4242,1.425,1.4251,1.4252,1.4237,1.4237,1.4237,1.4033,1.4043,1.4058,1.4086,1.4116,1.4141,1.4164,1.4189,1.4223,1.4238,1.4243,1.4243,1.4248,1.4248,1.4262,1.4263,1.4266,0,0]},{"header":{"parameterUnit":"m.s-1","parameterCategory":1,"la1":30.2992,"la2":30.254,"lo1":-89.0895,"lo2":-89.0443,"dy":0.0025,"dx":0.0025,"nx":19,"ny":19,"refTime":"2026-03-17T21:00:00:Z","depth":0,"parameterNumber":3,"parameterNumberName":"V-component_of_WINDS"},"data":[0,0,0,-3.0844,-3.0845,-3.0894,-3.0894,-3.0953,-3.0954,0,0,0,0,0,0,0,0,0,0,0,-3.0829,-3.0829,-3.0844,-3.0845,-3.0894,-3.0894,-3.0953,-3.0954,0,0,0,0,0,0,0,0,0,0,0,-3.0828,-3.0829,-3.0829,-3.0845,-3.0894,-3.0894,-3.0953,-3.0917,0,0,0,0,0,0,0,0,0,0,-3.087,-3.0855,-3.0829,-3.0829,-3.0846,-3.0894,-3.0894,-3.0915,-3.0919,-3.093,0,-3.094,0,-3.0948,-3.0957,-3.0958,0,0,0,-3.0845,-3.0852,-3.0866,-3.083,-3.0846,-3.0894,-3.0872,-3.0917,-3.0922,-3.0935,-3.0941,-3.0944,-3.0949,-3.0958,-3.0958,-3.1026,-3.1026,0,0,-3.0843,-3.0836,-3.0863,-3.0869,-3.0863,-3.087,-3.0873,-3.092,-3.0926,-3.0941,-3.0945,-3.095,-3.0958,-3.0959,-3.1025,-3.1026,0,0,0,-3.0835,-3.0834,-3.0848,-3.0867,-3.0876,-3.0872,-3.0875,-3.0923,-3.0929,-3.0946,-3.0951,-3.0959,-3.0959,-3.1025,-3.1025,-3.1037,0,0,0,-3.0833,-3.083,-3.0846,-3.0843,-3.0875,-3.09,-3.0877,-3.0925,-3.0931,-3.0951,-3.0959,-3.096,-3.1025,-3.1025,-3.1036,-3.1043,0,0,0,-3.0826,-3.0829,-3.0836,-3.0842,-3.0863,-3.09,-3.0907,-3.0927,-3.0934,-3.0958,-3.096,-3.1024,-3.1025,-3.1035,-3.1041,-3.1061,0,0,0,-3.0815,-3.0842,-3.0836,-3.0868,-3.0863,-3.0907,-3.0907,-3.0939,-3.0961,-3.0959,-3.1025,-3.1025,-3.1034,-3.104,-3.106,-3.1078,-3.1084,0,0,-3.0845,-3.0845,-3.0865,-3.0861,-3.0905,-3.09,-3.0945,-3.0969,-3.0975,-3.1008,-3.101,-3.1036,-3.1041,-3.1061,-3.1119,-3.1125,0,0,0,-3.0872,-3.0887,-3.09,-3.0922,-3.0943,-3.0962,-3.0981,-3.0991,-3.102,-3.0991,-3.1048,-3.1051,-3.1063,-3.1072,-3.1076,-3.1087,-3.1029,-3.1029,-3.1029,-3.0905,-3.0916,-3.095,-3.0967,-3.0988,-3.1009,-3.1028,-3.1044,-3.1045,-3.1059,-3.1069,-3.1103,-3.1113,-3.1117,-3.1129,-3.1077,-3.1077,-3.1078,-3.1078,-3.0951,-3.0974,-3.098,-3.1015,-3.1026,-3.1055,-3.1078,-3.1079,-3.1107,-3.1095,-3.1106,-3.1094,-3.1122,-3.1133,-3.1078,-3.1078,-3.1078,-3.1078,-3.1078,-3.0975,-3.0988,-3.1001,-3.1037,-3.1063,-3.1079,-3.1109,-3.1116,-3.1123,-3.1134,-3.1147,-3.1147,-3.115,-3.114,-3.114,-3.114,-3.114,-3.114,-3.114,-3.0994,-3.1009,-3.1034,-3.1062,-3.108,-3.1103,-3.1128,-3.1144,-3.1165,-3.1168,-3.1168,-3.117,-3.1122,-3.1112,-3.1142,-3.1142,-3.1142,-3.1142,-3.1141,-3.1039,-3.1031,-3.1069,-3.1087,-3.1123,-3.1151,-3.1162,-3.1196,-3.1211,-3.1226,-3.1226,-3.1189,-3.1189,-3.1185,-3.1177,-3.1222,-3.1222,-3.1222,-3.1222,-3.106,-3.1062,-3.1105,-3.1134,-3.1162,-3.1178,-3.1222,-3.1242,-3.1261,-3.1271,-3.1266,-3.1254,-3.125,-3.1252,-3.1248,-3.1239,-3.13,-3.13,-3.13,-3.1089,-3.1095,-3.1131,-3.1153,-3.1183,-3.1208,-3.1251,-3.1283,-3.1303,-3.1304,-3.128,-3.1277,-3.1258,-3.1251,-3.1251,-3.1244,-3.1229,0,0]}]]